KEDU

Details ICAO KEDU
Name University
Region United States
Timezone America/Los_Angeles (UTC-7.0)
Plans Departing 13
Arriving 9
Stats Elevation 68 ft / 21 m (AMSL)
Location 38.531460° -121.786478°
Runways 1
Magnetic Variation 13.527° E
Sunrise 2018-05-21 12:52:08 UTC / 2018-05-21 05:52:08 Local
Sunset 2018-05-22 03:18:15 UTC / 2018-05-21 20:18:15 Local
Advertisement - Login to hide

Runways

ID Width Length Bearing (true) Bearing (mag) Surface Threshold Offset Overrun Length
16 49 ft / 15 m 3,184 ft / 970 m 180.77° 167.24° Asphalt 0 ft / 0 m 0 ft / 0 m
34 49 ft / 15 m 3,184 ft / 970 m 0.77° 347.24° Asphalt 0 ft / 0 m 0 ft / 0 m

Map

Weather


0- 5 10 15 20 25 30 35+ Temperature / ° C

Clouds and Precipitation
Forecast for 2018-05-22 06:00 UTC. Updated an hour ago

Ground ~20,000 ft ~40,000 ft Winds

METAR

KEDU 220620Z AUTO 20008KT 9SM CLR 14/10 A2978 RMK AO1

TAF

Not found

Frequencies

Recorded 119.02 MHz AWOS
Approach 126.60 MHz TRAVIS APP
Unicom 122.80 MHz UNIVERSITY UNIC
Departure 126.60 MHz TRAVIS DEP
Warning: Do not use this data for real-world aviation or navigation. No guarantee of current accuracy is given.